Year,Month,Day,Hour,Minute,Value (Times are PST for temperature in C)
2010,03,20,00,00,2.50
2010,03,20,00,05,2.50
2010,03,20,00,06,2.50
2010,03,20,00,07,2.60
2010,03,20,00,08,2.60
2010,03,20,00,09,2.50
2010,03,20,00,10,2.50
2010,03,20,00,11,2.50
2010,03,20,00,12,2.50
2010,03,20,00,13,2.50
2010,03,20,00,14,2.40
2010,03,20,00,15,2.40
2010,03,20,00,16,2.40
2010,03,20,00,17,2.50
2010,03,20,00,18,2.50
2010,03,20,00,19,2.50
2010,03,20,00,20,2.50
2010,03,20,00,21,2.50
2010,03,20,00,22,2.60
2010,03,20,00,23,2.60
2010,03,20,00,24,2.70
2010,03,20,00,25,2.80
2010,03,20,00,26,2.80
2010,03,20,00,27,2.80
2010,03,20,00,28,2.80
2010,03,20,00,29,2.80
2010,03,20,00,30,2.80
2010,03,20,00,31,2.80
2010,03,20,00,32,2.80
2010,03,20,00,33,2.80
2010,03,20,00,34,2.70
2010,03,20,00,35,2.70
2010,03,20,00,36,2.70
2010,03,20,00,37,2.70
2010,03,20,00,38,2.70
2010,03,20,00,39,2.70
2010,03,20,00,40,2.70
2010,03,20,00,41,2.70
2010,03,20,00,42,2.70
2010,03,20,00,43,2.70
2010,03,20,00,44,2.70
2010,03,20,00,45,2.70
2010,03,20,00,46,2.70
2010,03,20,00,47,2.70
2010,03,20,00,48,2.70
2010,03,20,00,49,2.70
2010,03,20,00,50,2.60
2010,03,20,00,51,2.60
2010,03,20,00,52,2.60
2010,03,20,00,53,2.60
2010,03,20,00,54,2.60
2010,03,20,00,55,2.60
2010,03,20,00,56,2.70
2010,03,20,00,57,2.70
2010,03,20,00,58,2.70
2010,03,20,00,59,2.70
2010,03,20,01,00,2.80
2010,03,20,01,01,2.90
2010,03,20,01,02,3.00
2010,03,20,01,03,3.10
2010,03,20,01,04,3.20
2010,03,20,01,05,3.20
2010,03,20,01,06,3.20
2010,03,20,01,07,3.20
2010,03,20,01,08,3.20
2010,03,20,01,09,3.10
2010,03,20,01,10,3.10
2010,03,20,01,11,3.10
2010,03,20,01,12,3.20
2010,03,20,01,13,3.30
2010,03,20,01,14,3.40
2010,03,20,01,15,3.50
2010,03,20,01,16,3.60
2010,03,20,01,17,3.60
2010,03,20,01,18,3.50
2010,03,20,01,19,3.50
2010,03,20,01,20,3.50
2010,03,20,01,21,3.50
2010,03,20,01,22,3.50
2010,03,20,01,23,3.60
2010,03,20,01,24,3.60
2010,03,20,01,25,3.70
2010,03,20,01,26,3.70
2010,03,20,01,27,3.70
2010,03,20,01,28,3.70
2010,03,20,01,29,3.60
2010,03,20,01,30,3.60
2010,03,20,01,31,3.60
2010,03,20,01,32,3.50
2010,03,20,01,33,3.40
2010,03,20,01,34,3.40
2010,03,20,01,35,3.30
2010,03,20,01,36,3.20
2010,03,20,01,37,3.20
2010,03,20,01,38,3.10
2010,03,20,01,39,3.10
2010,03,20,01,40,3.00
2010,03,20,01,41,3.00
2010,03,20,01,42,3.00
2010,03,20,01,43,2.90
2010,03,20,01,44,2.90
2010,03,20,01,45,2.80
2010,03,20,01,46,2.80
2010,03,20,01,47,2.70
2010,03,20,01,48,2.70
2010,03,20,01,49,2.60
2010,03,20,01,50,2.60
2010,03,20,01,51,2.50
2010,03,20,01,52,2.50
2010,03,20,01,53,2.50
2010,03,20,01,54,2.40
2010,03,20,01,55,2.40
2010,03,20,01,56,2.40
2010,03,20,01,57,2.30
2010,03,20,01,58,2.30
2010,03,20,01,59,2.30
2010,03,20,02,00,2.30
2010,03,20,02,01,2.30
2010,03,20,02,02,2.40
2010,03,20,02,03,2.50
2010,03,20,02,04,2.50
2010,03,20,02,05,2.60
2010,03,20,02,06,2.70
2010,03,20,02,07,2.70
2010,03,20,02,08,2.70
2010,03,20,02,09,2.80
2010,03,20,02,10,2.90
2010,03,20,02,11,2.90
2010,03,20,02,12,2.90
2010,03,20,02,13,2.90
2010,03,20,02,14,2.90
2010,03,20,02,15,2.90
2010,03,20,02,16,3.00
2010,03,20,02,17,3.00
2010,03,20,02,18,3.00
2010,03,20,02,19,3.00
2010,03,20,02,20,3.00
2010,03,20,02,21,3.00
2010,03,20,02,22,3.00
2010,03,20,02,23,2.90
2010,03,20,02,24,2.90
2010,03,20,02,25,2.80
2010,03,20,02,26,2.70
2010,03,20,02,27,2.70
2010,03,20,02,28,2.60
2010,03,20,02,29,2.60
2010,03,20,02,30,2.50
2010,03,20,02,31,2.50
2010,03,20,02,32,2.50
2010,03,20,02,33,2.50
2010,03,20,02,34,2.50
2010,03,20,02,35,2.50
2010,03,20,02,36,2.50
2010,03,20,02,37,2.40
2010,03,20,02,38,2.40
2010,03,20,02,39,2.40
2010,03,20,02,40,2.50
2010,03,20,02,41,2.50
2010,03,20,02,42,2.60
2010,03,20,02,43,2.60
2010,03,20,02,44,2.60
2010,03,20,02,45,2.70
2010,03,20,02,46,2.70
2010,03,20,02,47,2.70
2010,03,20,02,48,2.70
2010,03,20,02,49,2.70
2010,03,20,02,50,2.80
2010,03,20,02,51,2.80
2010,03,20,02,52,2.80
2010,03,20,02,53,2.70
2010,03,20,02,54,2.70
2010,03,20,02,55,2.70
2010,03,20,02,56,2.60
2010,03,20,02,57,2.60
2010,03,20,02,58,2.60
2010,03,20,02,59,2.60
2010,03,20,03,00,2.60
2010,03,20,03,01,2.50
2010,03,20,03,02,2.50
2010,03,20,03,03,2.50
2010,03,20,03,04,2.50
2010,03,20,03,05,2.40
2010,03,20,03,06,2.40
2010,03,20,03,07,2.40
2010,03,20,03,08,2.40
2010,03,20,03,09,2.40
2010,03,20,03,10,2.40
2010,03,20,03,11,2.40
2010,03,20,03,12,2.30
2010,03,20,03,13,2.30
2010,03,20,03,14,2.30
2010,03,20,03,15,2.40
2010,03,20,03,16,2.40
2010,03,20,03,17,2.40
2010,03,20,03,18,2.50
2010,03,20,03,19,2.60
2010,03,20,03,20,2.60
2010,03,20,03,21,2.70
2010,03,20,03,22,2.60
2010,03,20,03,23,2.60
2010,03,20,03,24,2.60
2010,03,20,03,25,2.60
2010,03,20,03,26,2.50
2010,03,20,03,27,2.50
2010,03,20,03,28,2.50
2010,03,20,03,29,2.50
2010,03,20,03,30,2.50
2010,03,20,03,31,2.50
2010,03,20,03,32,2.50
2010,03,20,03,33,2.50
2010,03,20,03,34,2.60
2010,03,20,03,35,2.60
2010,03,20,03,36,2.60
2010,03,20,03,37,2.50
2010,03,20,03,38,2.50
2010,03,20,03,39,2.60
2010,03,20,03,40,2.60
2010,03,20,03,41,2.60
2010,03,20,03,42,2.60
2010,03,20,03,43,2.50
2010,03,20,03,44,2.50
2010,03,20,03,45,2.50
2010,03,20,03,46,2.50
2010,03,20,03,47,2.50
2010,03,20,03,48,2.50
2010,03,20,03,49,2.60
2010,03,20,03,50,2.60
2010,03,20,03,51,2.60
2010,03,20,03,52,2.60
2010,03,20,03,53,2.50
2010,03,20,03,54,2.50
2010,03,20,03,55,2.50
2010,03,20,03,56,2.40
2010,03,20,03,57,2.40
2010,03,20,03,58,2.40
2010,03,20,03,59,2.40
2010,03,20,04,00,2.30
2010,03,20,04,01,2.30
2010,03,20,04,02,2.30
2010,03,20,04,03,2.30
2010,03,20,04,04,2.30
2010,03,20,04,05,2.30
2010,03,20,04,06,2.20
2010,03,20,04,07,2.20
2010,03,20,04,08,2.20
2010,03,20,04,09,2.20
2010,03,20,04,10,2.20
2010,03,20,04,11,2.10
2010,03,20,04,12,2.10
2010,03,20,04,13,2.10
2010,03,20,04,14,2.00
2010,03,20,04,15,2.00
2010,03,20,04,16,2.00
2010,03,20,04,17,1.90
2010,03,20,04,18,1.90
2010,03,20,04,19,1.90
2010,03,20,04,20,1.80
2010,03,20,04,21,1.80
2010,03,20,04,22,1.80
2010,03,20,04,23,1.80
2010,03,20,04,24,1.80
2010,03,20,04,25,1.80
2010,03,20,04,26,1.80
2010,03,20,04,27,1.80
2010,03,20,04,28,1.80
2010,03,20,04,29,1.80
2010,03,20,04,30,1.80
2010,03,20,04,31,1.80
2010,03,20,04,32,1.80
2010,03,20,04,33,1.80
2010,03,20,04,34,1.80
2010,03,20,04,35,1.70
2010,03,20,04,36,1.70
2010,03,20,04,37,1.80
2010,03,20,04,38,1.80
2010,03,20,04,39,1.80
2010,03,20,04,40,1.80
2010,03,20,04,41,1.80
2010,03,20,04,42,1.80
2010,03,20,04,43,1.80
2010,03,20,04,44,1.80
2010,03,20,04,45,1.80
2010,03,20,04,46,1.80
2010,03,20,04,47,1.80
2010,03,20,04,48,1.80
2010,03,20,04,49,1.80
2010,03,20,04,50,1.80
2010,03,20,04,51,1.80
2010,03,20,04,52,1.80
2010,03,20,04,53,1.80
2010,03,20,04,54,1.80
2010,03,20,04,55,1.80
2010,03,20,04,56,1.70
2010,03,20,04,57,1.70
2010,03,20,04,58,1.70
2010,03,20,04,59,1.70
2010,03,20,05,00,1.70
2010,03,20,05,01,1.60
2010,03,20,05,02,1.60
2010,03,20,05,03,1.60
2010,03,20,05,04,1.60
2010,03,20,05,05,1.60
2010,03,20,05,06,1.70
2010,03,20,05,07,1.70
2010,03,20,05,08,1.70
2010,03,20,05,09,1.70
2010,03,20,05,10,1.70
2010,03,20,05,11,1.60
2010,03,20,05,12,1.60
2010,03,20,05,13,1.60
2010,03,20,05,14,1.60
2010,03,20,05,15,1.60
2010,03,20,05,16,1.60
2010,03,20,05,17,1.60
2010,03,20,05,18,1.60
2010,03,20,05,19,1.60
2010,03,20,05,20,1.60
2010,03,20,05,21,1.60
2010,03,20,05,22,1.60
2010,03,20,05,23,1.60
2010,03,20,05,24,1.60
2010,03,20,05,25,1.60
2010,03,20,05,26,1.60
2010,03,20,05,27,1.60
2010,03,20,05,28,1.60
2010,03,20,05,29,1.60
2010,03,20,05,30,1.60
2010,03,20,05,31,1.60
2010,03,20,05,32,1.60
2010,03,20,05,33,1.60
2010,03,20,05,34,1.60
2010,03,20,05,35,1.70
2010,03,20,05,36,1.70
2010,03,20,05,37,1.70
2010,03,20,05,38,1.60
2010,03,20,05,39,1.60
2010,03,20,05,40,1.60
2010,03,20,05,41,1.60
2010,03,20,05,42,1.60
2010,03,20,05,43,1.60
2010,03,20,05,44,1.60
2010,03,20,05,45,1.60
2010,03,20,05,46,1.60
2010,03,20,05,47,1.60
2010,03,20,05,48,1.60
2010,03,20,05,49,1.60
2010,03,20,05,50,1.60
2010,03,20,05,51,1.50
2010,03,20,05,52,1.50
2010,03,20,05,53,1.50
2010,03,20,05,54,1.40
2010,03,20,05,55,1.40
2010,03,20,05,56,1.30
2010,03,20,05,57,1.30
2010,03,20,05,58,1.30
2010,03,20,05,59,1.30
2010,03,20,06,00,1.30
2010,03,20,06,01,1.30
2010,03,20,06,02,1.30
2010,03,20,06,03,1.30
2010,03,20,06,04,1.30
2010,03,20,06,05,1.30
2010,03,20,06,06,1.30
2010,03,20,06,07,1.30
2010,03,20,06,08,1.30
2010,03,20,06,09,1.30
2010,03,20,06,10,1.30
2010,03,20,06,11,1.40
2010,03,20,06,12,1.40
2010,03,20,06,13,1.40
2010,03,20,06,14,1.40
2010,03,20,06,15,1.40
2010,03,20,06,16,1.40
2010,03,20,06,17,1.40
2010,03,20,06,18,1.40
2010,03,20,06,19,1.40
2010,03,20,06,20,1.50
2010,03,20,06,21,1.50
2010,03,20,06,22,1.50
2010,03,20,06,23,1.50
2010,03,20,06,24,1.50
2010,03,20,06,25,1.50
2010,03,20,06,26,1.50
2010,03,20,06,27,1.60
2010,03,20,06,28,1.60
2010,03,20,06,29,1.60
2010,03,20,06,30,1.60
2010,03,20,06,31,1.60
2010,03,20,06,32,1.60
2010,03,20,06,33,1.60
2010,03,20,06,34,1.60
2010,03,20,06,35,1.60
2010,03,20,06,36,1.60
2010,03,20,06,37,1.60
2010,03,20,06,38,1.60
2010,03,20,06,39,1.60
2010,03,20,06,40,1.60
2010,03,20,06,41,1.60
2010,03,20,06,42,1.60
2010,03,20,06,43,1.60
2010,03,20,06,44,1.60
2010,03,20,06,45,1.60
2010,03,20,06,46,1.60
2010,03,20,06,47,1.60
2010,03,20,06,48,1.60
2010,03,20,06,49,1.60
2010,03,20,06,50,1.60
2010,03,20,06,51,1.60
2010,03,20,06,52,1.70
2010,03,20,06,53,1.60
2010,03,20,06,54,1.60
2010,03,20,06,55,1.60
2010,03,20,06,56,1.60
2010,03,20,06,57,1.60
2010,03,20,06,58,1.60
2010,03,20,06,59,1.60
2010,03,20,07,00,1.60
2010,03,20,07,01,1.60
2010,03,20,07,02,1.60
2010,03,20,07,03,1.60
2010,03,20,07,04,1.60
2010,03,20,07,05,1.60
2010,03,20,07,06,1.50
2010,03,20,07,07,1.50
2010,03,20,07,08,1.50
2010,03,20,07,09,1.50
2010,03,20,07,10,1.50
2010,03,20,07,11,1.50
2010,03,20,07,12,1.60
2010,03,20,07,13,1.60
2010,03,20,07,14,1.60
2010,03,20,07,15,1.60
2010,03,20,07,16,1.60
2010,03,20,07,17,1.60
2010,03,20,07,18,1.60
2010,03,20,07,19,1.60
2010,03,20,07,20,1.60
2010,03,20,07,21,1.60
2010,03,20,07,22,1.60
2010,03,20,07,23,1.60
2010,03,20,07,24,1.60
2010,03,20,07,25,1.60
2010,03,20,07,26,1.60
2010,03,20,07,27,1.60
2010,03,20,07,28,1.60
2010,03,20,07,29,1.60
2010,03,20,07,30,1.60
2010,03,20,07,31,1.60
2010,03,20,07,32,1.60
2010,03,20,07,33,1.60
2010,03,20,07,34,1.60
2010,03,20,07,35,1.60
2010,03,20,07,36,1.60
2010,03,20,07,37,1.60
2010,03,20,07,38,1.60
2010,03,20,07,39,1.60
2010,03,20,07,40,1.60
2010,03,20,07,41,1.60
2010,03,20,07,42,1.60
2010,03,20,07,43,1.60
2010,03,20,07,44,1.60
2010,03,20,07,45,1.60
2010,03,20,07,46,1.60
2010,03,20,07,47,1.60
2010,03,20,07,48,1.60
2010,03,20,07,49,1.60
2010,03,20,07,50,1.60
2010,03,20,07,51,1.60
2010,03,20,07,52,1.60
2010,03,20,07,53,1.60
2010,03,20,07,54,1.60
2010,03,20,07,55,1.60
2010,03,20,07,56,1.60
2010,03,20,07,57,1.60
2010,03,20,07,58,1.60
2010,03,20,07,59,1.60
2010,03,20,08,00,1.60
2010,03,20,08,01,1.60
2010,03,20,08,02,1.70
2010,03,20,08,03,1.70
2010,03,20,08,04,1.70
2010,03,20,08,05,1.70
2010,03,20,08,06,1.70
2010,03,20,08,07,1.70
2010,03,20,08,08,1.80
2010,03,20,08,09,1.80
2010,03,20,08,10,1.80
2010,03,20,08,11,1.80
2010,03,20,08,12,1.80
2010,03,20,08,13,1.80
2010,03,20,08,14,1.90
2010,03,20,08,15,1.90
2010,03,20,08,16,1.90
2010,03,20,08,17,1.90
2010,03,20,08,18,1.90
2010,03,20,08,19,2.00
2010,03,20,08,20,2.00
2010,03,20,08,21,2.00
2010,03,20,08,22,2.00
2010,03,20,08,23,2.00
2010,03,20,08,24,2.10
2010,03,20,08,25,2.10
2010,03,20,08,26,2.10
2010,03,20,08,27,2.10
2010,03,20,08,28,2.20
2010,03,20,08,29,2.20
2010,03,20,08,30,2.20
2010,03,20,08,31,2.20
2010,03,20,08,32,2.20
2010,03,20,08,33,2.20
2010,03,20,08,34,2.30
2010,03,20,08,35,2.30
2010,03,20,08,36,2.30
2010,03,20,08,37,2.40
2010,03,20,08,38,2.40
2010,03,20,08,39,2.50
2010,03,20,08,40,2.50
2010,03,20,08,41,2.50
2010,03,20,08,42,2.60
2010,03,20,08,43,2.60
2010,03,20,08,44,2.60
2010,03,20,08,45,2.70
2010,03,20,08,46,2.70
2010,03,20,08,47,2.80
2010,03,20,08,48,2.80
2010,03,20,08,49,2.90
2010,03,20,08,50,2.90
2010,03,20,08,51,3.00
2010,03,20,08,52,3.00
2010,03,20,08,53,3.10
2010,03,20,08,54,3.20
2010,03,20,08,55,3.20
2010,03,20,08,56,3.30
2010,03,20,08,57,3.30
2010,03,20,08,58,3.40
2010,03,20,08,59,3.40
2010,03,20,09,00,3.50
2010,03,20,09,01,3.60
2010,03,20,09,02,3.60
2010,03,20,09,03,3.70
2010,03,20,09,04,3.80
2010,03,20,09,05,3.90
2010,03,20,09,06,4.00
2010,03,20,09,07,4.10
2010,03,20,09,08,4.10
2010,03,20,09,09,4.20
2010,03,20,09,10,4.30
2010,03,20,09,11,4.30
2010,03,20,09,12,4.40
2010,03,20,09,13,4.50
2010,03,20,09,14,4.50
2010,03,20,09,15,4.60
2010,03,20,09,16,4.60
2010,03,20,09,17,4.70
2010,03,20,09,18,4.80
2010,03,20,09,19,4.90
2010,03,20,09,20,4.90
2010,03,20,09,21,5.00
2010,03,20,09,22,5.10
2010,03,20,09,23,5.20
2010,03,20,09,24,5.30
2010,03,20,09,25,5.40
2010,03,20,09,26,5.50
2010,03,20,09,27,5.70
2010,03,20,09,28,5.80
2010,03,20,09,29,6.00
2010,03,20,09,30,6.10
2010,03,20,09,31,6.30
2010,03,20,09,32,6.50
2010,03,20,09,33,6.60
2010,03,20,09,34,6.80
2010,03,20,09,35,6.90
2010,03,20,09,36,7.10
2010,03,20,09,37,7.20
2010,03,20,09,38,7.20
2010,03,20,09,39,7.30
2010,03,20,09,40,7.30
2010,03,20,09,41,7.30
2010,03,20,09,42,7.30
2010,03,20,09,43,7.30
2010,03,20,09,44,7.30
2010,03,20,09,45,7.40
2010,03,20,09,46,7.40
2010,03,20,09,47,7.40
2010,03,20,09,48,7.50
2010,03,20,09,49,7.60
2010,03,20,09,50,7.60
2010,03,20,09,51,7.60
2010,03,20,09,52,7.70
2010,03,20,09,53,7.70
2010,03,20,09,54,7.70
2010,03,20,09,55,7.60
2010,03,20,09,56,7.60
2010,03,20,09,57,7.60
2010,03,20,09,58,7.60
2010,03,20,09,59,7.60
2010,03,20,10,00,7.70
2010,03,20,10,01,7.70
2010,03,20,10,02,7.70
2010,03,20,10,03,7.70
2010,03,20,10,04,7.70
2010,03,20,10,05,7.70
2010,03,20,10,06,7.70
2010,03,20,10,07,7.60
2010,03,20,10,08,7.50
2010,03,20,10,09,7.50
2010,03,20,10,10,7.50
2010,03,20,10,11,7.50
2010,03,20,10,12,7.40
2010,03,20,10,13,7.40
2010,03,20,10,14,7.40
2010,03,20,10,15,7.40
2010,03,20,10,16,7.50
2010,03,20,10,17,7.50
2010,03,20,10,18,7.40
2010,03,20,10,19,7.40
2010,03,20,10,20,7.30
2010,03,20,10,21,7.30
2010,03,20,10,22,7.20
2010,03,20,10,23,7.20
2010,03,20,10,24,7.30
2010,03,20,10,25,7.30
2010,03,20,10,26,7.30
2010,03,20,10,27,7.30
2010,03,20,10,28,7.30
2010,03,20,10,29,7.30
2010,03,20,10,30,7.30
2010,03,20,10,31,7.30
2010,03,20,10,32,7.30
2010,03,20,10,33,7.30
2010,03,20,10,34,7.30
2010,03,20,10,35,7.30
2010,03,20,10,36,7.30
2010,03,20,10,37,7.30
2010,03,20,10,38,7.30
2010,03,20,10,39,7.30
2010,03,20,10,40,7.30
2010,03,20,10,41,7.30
2010,03,20,10,42,7.30
2010,03,20,10,43,7.30
2010,03,20,10,44,7.20
2010,03,20,10,45,7.20
2010,03,20,10,46,7.10
2010,03,20,10,47,7.10
2010,03,20,10,48,7.20
2010,03,20,10,49,7.20
2010,03,20,10,50,7.10
2010,03,20,10,51,7.10
2010,03,20,10,52,7.20
2010,03,20,10,53,7.20
2010,03,20,10,54,7.20
2010,03,20,10,55,7.20
2010,03,20,10,56,7.20
2010,03,20,10,57,7.30
2010,03,20,10,58,7.30
2010,03,20,10,59,7.30
2010,03,20,11,00,7.40
2010,03,20,11,01,7.40
2010,03,20,11,02,7.40
2010,03,20,11,03,7.50
2010,03,20,11,04,7.50
2010,03,20,11,05,7.60
2010,03,20,11,06,7.60
2010,03,20,11,07,7.60
2010,03,20,11,08,7.70
2010,03,20,11,09,7.70
2010,03,20,11,10,7.70
2010,03,20,11,11,7.70
2010,03,20,11,12,7.70
2010,03,20,11,13,7.70
2010,03,20,11,14,7.60
2010,03,20,11,15,7.50
2010,03,20,11,16,7.50
2010,03,20,11,17,7.40
2010,03,20,11,18,7.50
2010,03,20,11,19,7.50
2010,03,20,11,20,7.50
2010,03,20,11,21,7.50
2010,03,20,11,22,7.50
2010,03,20,11,23,7.50
2010,03,20,11,24,7.60
2010,03,20,11,25,7.60
2010,03,20,11,26,7.70
2010,03,20,11,27,7.70
2010,03,20,11,28,7.80
2010,03,20,11,29,7.80
2010,03,20,11,30,7.90
2010,03,20,11,31,7.90
2010,03,20,11,32,8.00
2010,03,20,11,33,8.00
2010,03,20,11,34,8.10
2010,03,20,11,35,8.10
2010,03,20,11,36,8.20
2010,03,20,11,37,8.20
2010,03,20,11,38,8.30
2010,03,20,11,39,8.30
2010,03,20,11,40,8.30
2010,03,20,11,41,8.40
2010,03,20,11,42,8.40
2010,03,20,11,43,8.40
2010,03,20,11,44,8.40
2010,03,20,11,45,8.40
2010,03,20,11,46,8.40
2010,03,20,11,47,8.40
2010,03,20,11,48,8.40
2010,03,20,11,49,8.40
2010,03,20,11,50,8.40
2010,03,20,11,51,8.40
2010,03,20,11,52,8.40
2010,03,20,11,53,8.30
2010,03,20,11,54,8.30
2010,03,20,11,55,8.30
2010,03,20,11,56,8.30
2010,03,20,11,57,8.20
2010,03,20,11,58,8.10
2010,03,20,11,59,8.10
2010,03,20,12,00,8.10
2010,03,20,12,01,8.10
2010,03,20,12,02,8.10
2010,03,20,12,03,8.10
2010,03,20,12,04,8.10
2010,03,20,12,05,8.10
2010,03,20,12,06,8.00
2010,03,20,12,07,8.00
2010,03,20,12,08,7.90
2010,03,20,12,09,7.90
2010,03,20,12,10,7.80
2010,03,20,12,11,7.80
2010,03,20,12,12,7.80
2010,03,20,12,13,7.70
2010,03,20,12,14,7.70
2010,03,20,12,15,7.70
2010,03,20,12,16,7.80
2010,03,20,12,17,7.80
2010,03,20,12,18,7.80
2010,03,20,12,19,7.90
2010,03,20,12,20,8.00
2010,03,20,12,21,8.10
2010,03,20,12,22,8.10
2010,03,20,12,23,8.10
2010,03,20,12,24,8.10
2010,03,20,12,25,8.10
2010,03,20,12,26,8.10
2010,03,20,12,27,8.10
2010,03,20,12,28,8.10
2010,03,20,12,29,8.20
2010,03,20,12,30,8.20
2010,03,20,12,31,8.20
2010,03,20,12,32,8.20
2010,03,20,12,33,8.30
2010,03,20,12,34,8.30
2010,03,20,12,35,8.30
2010,03,20,12,36,8.20
2010,03,20,12,37,8.20
2010,03,20,12,38,8.20
2010,03,20,12,39,8.30
2010,03,20,12,40,8.30
2010,03,20,12,41,8.40
2010,03,20,12,42,8.50
2010,03,20,12,43,8.50
2010,03,20,12,44,8.60
2010,03,20,12,45,8.70
2010,03,20,12,46,8.70
2010,03,20,12,47,8.70
2010,03,20,12,48,8.80
2010,03,20,12,49,8.90
2010,03,20,12,50,8.90
2010,03,20,12,51,8.90
2010,03,20,12,52,8.90
2010,03,20,12,53,8.90
2010,03,20,12,54,8.90
2010,03,20,12,55,8.90
2010,03,20,12,56,8.90
2010,03,20,12,57,9.00
2010,03,20,12,58,9.00
2010,03,20,12,59,8.90
2010,03,20,13,00,8.90
2010,03,20,13,01,8.90
2010,03,20,13,02,8.90
2010,03,20,13,03,8.90
2010,03,20,13,04,9.00
2010,03,20,13,05,9.10
2010,03,20,13,06,9.10
2010,03,20,13,07,9.10
2010,03,20,13,08,9.10
2010,03,20,13,09,9.10
2010,03,20,13,10,9.10
2010,03,20,13,11,9.10
2010,03,20,13,12,9.10
2010,03,20,13,13,9.00
2010,03,20,13,14,9.00
2010,03,20,13,15,9.00
2010,03,20,13,16,8.90
2010,03,20,13,17,8.80
2010,03,20,13,18,8.70
2010,03,20,13,19,8.70
2010,03,20,13,20,8.70
2010,03,20,13,21,8.70
2010,03,20,13,22,8.80
2010,03,20,13,23,8.80
2010,03,20,13,24,8.80
2010,03,20,13,25,8.80
2010,03,20,13,26,8.70
2010,03,20,13,27,8.70
2010,03,20,13,28,8.70
2010,03,20,13,29,8.80
2010,03,20,13,30,8.80
2010,03,20,13,31,8.90
2010,03,20,13,32,9.00
2010,03,20,13,33,9.00
2010,03,20,13,34,9.10
2010,03,20,13,35,9.20
2010,03,20,13,36,9.20
2010,03,20,13,37,9.20
2010,03,20,13,38,9.30
2010,03,20,13,39,9.30
2010,03,20,13,40,9.40
2010,03,20,13,41,9.40
2010,03,20,13,42,9.40
2010,03,20,13,43,9.40
2010,03,20,13,44,9.40
2010,03,20,13,45,9.40
2010,03,20,13,46,9.40
2010,03,20,13,47,9.40
2010,03,20,13,48,9.30
2010,03,20,13,49,9.30
2010,03,20,13,50,9.30
2010,03,20,13,51,9.30
2010,03,20,13,52,9.30
2010,03,20,13,53,9.30
2010,03,20,13,54,9.30
2010,03,20,13,55,9.30
2010,03,20,13,56,9.30
2010,03,20,13,57,9.30
2010,03,20,13,58,9.40
2010,03,20,13,59,9.40
2010,03,20,14,00,9.40
2010,03,20,14,01,9.50
2010,03,20,14,02,9.50
2010,03,20,14,03,9.60
2010,03,20,14,04,9.60
2010,03,20,14,05,9.70
2010,03,20,14,06,9.80
2010,03,20,14,07,9.80
2010,03,20,14,08,9.80
2010,03,20,14,09,9.80
2010,03,20,14,10,9.90
2010,03,20,14,11,9.90
2010,03,20,14,12,9.90
2010,03,20,14,13,9.90
2010,03,20,14,14,10.00
2010,03,20,14,15,10.10
2010,03,20,14,16,10.10
2010,03,20,14,17,10.20
2010,03,20,14,18,10.20
2010,03,20,14,19,10.30
2010,03,20,14,20,10.30
2010,03,20,14,21,10.40
2010,03,20,14,22,10.40
2010,03,20,14,23,10.50
2010,03,20,14,24,10.50
2010,03,20,14,25,10.60
2010,03,20,14,26,10.60
2010,03,20,14,27,10.70
2010,03,20,14,28,10.70
2010,03,20,14,29,10.70
2010,03,20,14,30,10.70
2010,03,20,14,31,10.70
2010,03,20,14,32,10.70
2010,03,20,14,33,10.70
2010,03,20,14,34,10.80
2010,03,20,14,35,10.80
2010,03,20,14,36,10.80
2010,03,20,14,37,10.90
2010,03,20,14,38,10.90
2010,03,20,14,39,10.80
2010,03,20,14,40,10.80
2010,03,20,14,41,10.80
2010,03,20,14,42,10.90
2010,03,20,14,43,10.90
2010,03,20,14,44,11.00
2010,03,20,14,45,11.00
2010,03,20,14,46,11.10
2010,03,20,14,47,11.10
2010,03,20,14,48,11.20
2010,03,20,14,49,11.20
2010,03,20,14,50,11.20
2010,03,20,14,51,11.10
2010,03,20,14,52,11.10
2010,03,20,14,53,11.10
2010,03,20,14,54,11.10
2010,03,20,14,55,11.10
2010,03,20,14,56,11.10
2010,03,20,14,57,11.10
2010,03,20,14,58,11.10
2010,03,20,14,59,11.20
2010,03,20,15,00,11.20
2010,03,20,15,01,11.20
2010,03,20,15,02,11.20
2010,03,20,15,03,11.20
2010,03,20,15,04,11.20
2010,03,20,15,05,11.20
2010,03,20,15,06,11.30
2010,03,20,15,07,11.30
2010,03,20,15,08,11.40
2010,03,20,15,09,11.40
2010,03,20,15,10,11.50
2010,03,20,15,11,11.50
2010,03,20,15,12,11.60
2010,03,20,15,13,11.60
2010,03,20,15,14,11.60
2010,03,20,15,15,11.60
2010,03,20,15,16,11.70
2010,03,20,15,17,11.70
2010,03,20,15,18,11.80
2010,03,20,15,19,11.80
2010,03,20,15,20,11.80
2010,03,20,15,21,11.80
2010,03,20,15,22,11.90
2010,03,20,15,23,11.90
2010,03,20,15,24,11.90
2010,03,20,15,25,12.00
2010,03,20,15,26,12.00
2010,03,20,15,27,12.10
2010,03,20,15,28,12.10
2010,03,20,15,29,12.10
2010,03,20,15,30,12.20
2010,03,20,15,31,12.30
2010,03,20,15,32,12.30
2010,03,20,15,33,12.40
2010,03,20,15,34,12.50
2010,03,20,15,35,12.50
2010,03,20,15,36,12.60
2010,03,20,15,37,12.70
2010,03,20,15,38,12.70
2010,03,20,15,39,12.80
2010,03,20,15,40,12.80
2010,03,20,15,41,12.90
2010,03,20,15,42,13.00
2010,03,20,15,43,13.00
2010,03,20,15,44,13.10
2010,03,20,15,45,13.20
2010,03,20,15,46,13.30
2010,03,20,15,47,13.40
2010,03,20,15,48,13.50
2010,03,20,15,49,13.60
2010,03,20,15,50,13.70
2010,03,20,15,51,13.70
2010,03,20,15,52,13.70
2010,03,20,15,53,13.70
2010,03,20,15,54,13.80
2010,03,20,15,55,13.80
2010,03,20,15,56,13.90
2010,03,20,15,57,14.00
2010,03,20,15,58,14.20
2010,03,20,15,59,14.30
2010,03,20,16,00,14.40
2010,03,20,16,01,14.40
2010,03,20,16,02,14.50
2010,03,20,16,03,14.50
2010,03,20,16,04,14.50
2010,03,20,16,05,14.50
2010,03,20,16,06,14.40
2010,03,20,16,07,14.40
2010,03,20,16,08,14.40
2010,03,20,16,09,14.40
2010,03,20,16,10,14.50
2010,03,20,16,11,14.50
2010,03,20,16,12,14.50
2010,03,20,16,13,14.50
2010,03,20,16,14,14.50
2010,03,20,16,15,14.40
2010,03,20,16,16,14.30
2010,03,20,16,17,14.20
2010,03,20,16,18,14.10
2010,03,20,16,19,14.10
2010,03,20,16,20,14.00
2010,03,20,16,21,14.00
2010,03,20,16,22,14.00
2010,03,20,16,23,14.00
2010,03,20,16,24,13.90
2010,03,20,16,25,13.90
2010,03,20,16,26,13.90
2010,03,20,16,27,13.90
2010,03,20,16,28,13.90
2010,03,20,16,29,13.90
2010,03,20,16,30,13.90
2010,03,20,16,31,13.90
2010,03,20,16,32,13.90
2010,03,20,16,33,13.80
2010,03,20,16,34,13.80
2010,03,20,16,35,13.90
2010,03,20,16,36,13.90
2010,03,20,16,37,13.90
2010,03,20,16,38,14.00
2010,03,20,16,39,14.10
2010,03,20,16,40,14.20
2010,03,20,16,41,14.20
2010,03,20,16,42,14.10
2010,03,20,16,43,14.10
2010,03,20,16,44,14.10
2010,03,20,16,45,14.10
2010,03,20,16,46,14.10
2010,03,20,16,47,14.10
2010,03,20,16,48,14.10
2010,03,20,16,49,14.10
2010,03,20,16,50,14.10
2010,03,20,16,51,14.10
2010,03,20,16,52,14.10
2010,03,20,16,53,14.00
2010,03,20,16,54,14.00
2010,03,20,16,55,14.00
2010,03,20,16,56,13.90
2010,03,20,16,57,13.80
2010,03,20,16,58,13.80
2010,03,20,16,59,13.70
2010,03,20,17,00,13.70
2010,03,20,17,01,13.60
2010,03,20,17,02,13.60
2010,03,20,17,03,13.50
2010,03,20,17,04,13.40
2010,03,20,17,05,13.40
2010,03,20,17,06,13.40
2010,03,20,17,07,13.30
2010,03,20,17,08,13.30
2010,03,20,17,09,13.30
2010,03,20,17,10,13.30
2010,03,20,17,11,13.30
2010,03,20,17,12,13.20
2010,03,20,17,13,13.20
2010,03,20,17,14,13.20
2010,03,20,17,15,13.10
2010,03,20,17,16,13.00
2010,03,20,17,17,13.00
2010,03,20,17,18,12.90
2010,03,20,17,19,12.80
2010,03,20,17,20,12.70
2010,03,20,17,21,12.60
2010,03,20,17,22,12.50
2010,03,20,17,23,12.40
2010,03,20,17,24,12.40
2010,03,20,17,25,12.30
2010,03,20,17,26,12.30
2010,03,20,17,27,12.20
2010,03,20,17,28,12.20
2010,03,20,17,29,12.10
2010,03,20,17,30,12.10
2010,03,20,17,31,12.00
2010,03,20,17,32,12.00
2010,03,20,17,33,11.90
2010,03,20,17,34,11.90
2010,03,20,17,35,11.90
2010,03,20,17,36,11.90
2010,03,20,17,37,11.90
2010,03,20,17,38,11.90
2010,03,20,17,39,11.90
2010,03,20,17,40,11.90
2010,03,20,17,41,12.00
2010,03,20,17,42,12.00
2010,03,20,17,43,12.00
2010,03,20,17,44,11.90
2010,03,20,17,45,11.90
2010,03,20,17,46,11.90
2010,03,20,17,47,11.90
2010,03,20,17,48,11.90
2010,03,20,17,49,11.90
2010,03,20,17,50,11.90
2010,03,20,17,51,11.90
2010,03,20,17,52,11.90
2010,03,20,17,53,11.90
2010,03,20,17,54,12.00
2010,03,20,17,55,12.00
2010,03,20,17,56,12.00
2010,03,20,17,57,12.00
2010,03,20,17,58,11.90
2010,03,20,17,59,11.90
2010,03,20,18,00,11.90